GFSMA_con_sbcape_132.txt.gz
CAPE
2707 2504 2418 2171 2145 2392 2417 2331 2289 2354 2454 2328 2200 2051 1935 1821 1635 1372 1360 750 215 385 973 1293 1609 1968 1915 1507 1345 1384 1330 1298 1041 943 727 565 529 486 477 454 343 374 322
2284 2145 2472 2443 2423 2357 2401 2409 2165 2144 2311 2087 1881 1996 1994 1958 1744 1699 1485 1332 454 101 396 905 1372 1939 2332 1861 1275 1320 1357 1285 1138 958 787 536 398 289 233 275 215 258 276
4 1609 2069 2018 2123 2351 2352 2119 2143 2011 1924 2066 2077 2105 2020 2194 1994 1870 1816 1677 1083 207 34 205 846 1581 2171 2137 1364 1244 1215 1129 1072 966 775 513 366 272 207 156 114 161 202
0 0 225 1392 1524 1723 1503 1497 1848 1902 1692 2036 1930 1959 1968 2082 2024 2002 1893 1779 1664 1283 165 43 97 806 1154 1390 1646 1520 1358 1143 1054 1025 804 540 368 288 194 127 115 110 117
0 0 1 2 0 512 975 1250 1504 1692 1386 1366 1584 1735 1987 1968 1912 1736 1629 1760 1804 1620 1334 331 37 122 273 411 823 1084 1724 1371 1143 1106 883 577 402 265 187 126 100 89 115
0 0 0 0 0 5 263 788 1113 1288 869 484 694 1314 1191 1524 1917 1606 1748 1441 1646 1700 1817 1415 921 565 0 30 240 822 1384 1913 1639 1414 1008 780 500 287 175 132 114 106 114
0 0 0 0 0 0 4 3 35 607 997 641 406 563 132 24 1280 1448 1613 1465 1438 1628 1762 1662 1848 1529 476 3 7 443 977 1721 1894 1725 1032 758 560 281 121 108 89 97 118
0 0 0 0 0 0 0 3 9 8 180 513 623 602 316 236 1193 1064 1707 1475 1529 1438 1506 1564 1362 1508 1396 1337 793 22 545 1181 1619 1610 1271 723 481 237 90 81 79 81 87
0 0 0 0 1 0 0 1 1 7 15 12 247 528 373 357 622 1455 1134 1370 1385 1289 1200 1175 1102 1125 1242 1328 903 518 8 83 655 1216 1050 754 453 267 118 66 69 76 60
0 1 3 4 3 2 1 2 0 3 8 11 10 13 485 779 469 588 466 782 964 566 717 452 370 396 312 665 576 611 271 0 7 427 756 771 549 343 133 91 47 40 54
0 1 6 10 7 8 5 10 14 10 8 2 9 20 5 495 1066 647 193 263 220 77 101 126 186 252 296 172 285 432 117 0 0 0 315 676 639 384 208 128 55 30 42
1 3 6 10 8 9 9 8 8 11 5 7 7 14 17 5 209 463 432 273 199 235 129 133 211 100 115 84 70 63 85 1 0 0 0 119 434 349 214 199 165 137 84
4 7 10 9 9 6 11 14 12 4 3 4 11 9 8 10 1 4 157 479 466 432 302 205 66 89 77 243 107 21 14 0 0 0 0 0 34 135 146 129 137 162 146
9 11 9 9 17 16 14 13 18 20 15 23 16 10 4 11 7 4 3 84 582 518 389 335 334 137 160 64 158 9 132 0 1 1 1 0 0 0 1 2 4 5 5
10 10 12 11 12 14 15 15 21 19 18 21 20 20 19 6 17 9 12 3 258 326 333 509 730 265 70 53 12 112 447 37 1 1 1 1 1 0 0 0 0 0 0
11 11 11 6 6 7 12 15 14 16 16 20 15 19 25 21 16 12 13 16 42 235 382 123 498 582 290 49 135 355 419 114 1 1 1 1 1 0 0 0 0 0 0
10 7 11 9 8 7 9 15 12 9 12 16 23 25 23 26 25 14 6 27 32 260 272 382 397 541 713 394 303 332 349 502 188 1 1 1 1 1 1 1 1 0 1
11 10 13 11 12 11 12 11 13 19 20 19 17 14 12 11 12 21 19 11 33 38 356 381 348 507 864 771 599 604 544 286 467 12 1 1 1 1 1 1 0 1 1
11 11 11 14 21 22 10 15 18 13 12 15 17 25 20 16 17 21 18 25 18 30 271 211 487 317 581 721 745 700 942 663 531 67 1 0 1 1 1 1 0 1 1
13 12 13 11 21 20 18 17 15 14 10 10 12 11 11 17 20 25 11 23 29 23 79 220 346 499 607 549 681 774 500 236 166 6 0 0 0 1 1 1 0 1 1
12 11 11 11 15 21 36 24 21 22 21 17 13 9 10 10 5 4 5 11 14 17 40 80 223 288 525 533 252 162 396 306 54 2 2 2 1 1 1 0 0 1 1
13 13 14 13 16 23 11 14 16 28 24 18 12 10 10 7 6 4 5 6 2 1 2 17 81 176 215 427 204 164 101 128 0 1 0 2 1 0 0 1 0 1 1
15 11 20 23 28 31 6 8 13 21 18 23 16 12 10 10 4 5 5 3 4 6 2 3 5 5 3 4 4 0 5 110 46 28 0 0 1 1 1 0 0 0 0
16 15 12 23 20 28 8 5 5 12 15 11 21 17 11 6 8 4 2 1 2 4 5 5 4 4 6 3 6 2 0 2 0 0 0 0 1 1 0 1 0 0 0
13 11 11 9 13 20 5 7 6 11 15 13 13 11 13 12 19 15 1 0 0 0 3 8 8 6 4 5 3 0 0 0 0 0 0 0 1 0 1 1 2 1 0
15 16 9 8 8 18 3 2 4 21 14 18 15 15 9 8 11 13 8 8 4 4 3 1 0 1 2 2 4 2 3 1 1 3 1 2 1 0 0 1 4 5 0

GFSMA_con_sbcape_138.txt.gz
CAPE
2 229 1607 1964 1528 1598 1370 1303 1146 1251 1293 1415 1495 1130 1393 1394 990 1006 382 378 855 1401 1979 1822 1776 2050 2185 1728 1421 1345 1425 1356 1217 1030 671 535 521 595 637 485 450 552 532
0 0 8 533 1153 748 1278 1146 983 857 493 331 463 1317 1525 1669 1771 1449 1512 219 447 812 1268 1771 2033 2258 2444 2365 1605 1314 1348 1348 1255 1068 815 546 452 430 463 421 388 342 354
0 0 0 81 82 14 53 236 355 184 1 0 41 52 814 1137 1494 1598 1658 1493 235 260 643 978 1317 1729 2084 2338 1833 1294 1161 1079 1150 1110 842 589 447 360 316 314 247 232 263
0 0 0 2 0 0 141 252 467 431 0 14 0 0 273 840 986 1135 1506 1569 1264 646 81 324 615 918 1300 1892 2233 1655 1327 1063 1069 1083 912 650 455 356 277 208 153 141 158
0 0 0 0 0 0 1 11 3 71 366 114 28 197 282 713 892 921 1004 1257 1444 1217 1015 96 102 291 519 809 1527 2244 1979 1392 1152 1130 996 735 512 389 291 153 99 105 91
0 0 0 0 0 0 0 0 0 19 70 59 559 673 773 865 869 932 1046 1124 1239 1167 1104 1118 75 21 37 270 586 1278 2203 1934 1550 1366 1160 908 622 429 313 187 95 86 72
0 0 0 0 0 0 0 0 0 0 0 45 86 363 385 427 577 769 809 877 964 982 884 1299 999 288 50 0 142 768 1773 2278 1851 1543 1223 938 670 452 315 229 136 80 77
0 0 0 0 0 0 0 0 0 0 0 0 95 114 139 156 408 505 486 523 547 866 1025 918 980 1136 946 233 32 173 1066 1762 1770 1655 1197 836 665 454 324 240 152 76 58
0 0 0 0 0 0 0 0 0 0 0 0 0 54 107 153 85 173 421 526 397 203 125 114 432 708 972 1057 455 60 119 528 918 1207 1229 813 551 471 376 272 191 98 60
0 0 0 0 0 0 1 1 3 1 0 1 0 0 8 41 54 4 22 10 286 243 95 227 526 550 632 760 813 242 24 26 161 728 1115 982 567 452 394 312 240 136 71
0 0 0 0 0 3 5 2 2 2 1 0 3 2 0 0 0 4 0 0 1 341 475 530 549 564 602 722 602 758 1 0 0 127 552 956 713 463 397 329 273 179 119
0 0 3 6 9 7 7 9 2 10 9 8 5 0 0 5 0 0 0 0 0 0 39 230 566 661 645 647 670 558 33 0 0 0 46 331 646 527 390 342 313 254 199
3 4 5 9 2 7 9 9 10 7 12 12 14 14 4 2 0 1 2 0 0 0 0 0 6 374 561 489 224 111 16 0 0 0 0 13 129 309 318 299 285 286 248
7 6 6 9 6 9 11 8 11 9 10 14 12 12 15 16 12 2 1 9 3 0 0 0 0 25 323 243 122 66 1 0 0 0 0 0 0 35 100 112 177 209 225
4 8 7 3 6 7 6 9 12 13 9 11 13 13 12 12 16 21 5 8 5 10 0 0 0 0 0 211 212 98 46 2 0 0 0 0 0 0 1 26 33 67 99
8 8 6 4 6 2 5 8 6 10 11 8 9 8 8 12 14 22 23 30 24 17 5 3 0 1 0 0 84 98 91 23 0 0 0 0 0 0 0 0 3 7 14
7 7 7 8 10 9 5 3 7 9 16 16 18 10 17 5 19 6 15 18 28 33 17 8 10 0 0 5 0 8 223 80 87 0 0 0 1 0 0 1 1 1 1
7 7 8 5 10 8 8 6 14 12 13 18 23 21 19 17 10 6 11 12 20 15 27 12 5 4 4 0 0 13 195 172 155 45 0 1 1 1 1 1 1 1 1
2 5 4 4 8 6 11 5 16 11 12 17 22 27 27 19 9 12 16 15 21 26 25 33 23 9 3 2 0 0 56 146 50 1 23 1 1 0 1 1 1 1 1
0 0 3 2 4 1 8 7 11 11 12 11 15 19 23 18 15 14 16 11 10 13 15 18 30 20 1 0 5 10 18 60 121 112 27 0 0 0 1 1 1 1 1
1 2 3 3 1 2 6 5 10 14 9 7 10 10 15 20 17 16 17 11 12 9 12 8 30 18 7 4 4 4 6 0 22 55 6 0 0 1 2 1 2 1 1
3 0 0 4 1 7 4 9 10 16 13 11 9 6 6 8 7 8 14 10 8 9 9 8 8 5 4 7 7 6 3 4 12 0 3 1 0 0 0 2 1 1 1
0 0 0 0 0 0 5 6 4 0 1 0 0 2 5 5 5 2 5 7 3 11 8 8 7 7 6 6 6 5 5 5 5 0 1 1 0 1 0 1 0 0 1
0 0 0 0 0 0 4 4 7 0 0 0 0 0 0 0 1 2 0 0 0 0 4 5 1 1 3 3 4 5 4 2 0 0 0 0 0 0 0 0 1 1 0
3 0 0 0 0 0 5 3 0 0 0 0 0 0 0 0 12 13 0 0 0 0 3 20 17 15 11 10 13 0 1 1 0 1 0 1 0 0 0 0 0 3 1
2 3 0 0 2 0 4 5 0 0 0 0 0 0 4 1 6 9 0 0 0 1 0 0 0 0 2 2 6 0 0 0 0 0 0 0 0 0 0 0 0 0 0

GFSMA_con_sbcape_141.txt.gz
CAPE
0 0 0 12 198 0 89 189 349 391 692 573 27 0 4 0 510 508 358 624 1249 1775 2085 2277 2416 2379 2109 1604 1353 1258 1263 1131 993 909 630 519 470 587 607 613 665 617 568
0 0 0 0 23 0 3 109 255 1 1 1 0 62 0 31 603 723 248 350 742 1240 1778 1953 2261 2443 2301 1871 1377 1196 1232 1179 1057 987 752 437 419 377 450 417 368 419 499
0 0 0 0 0 0 0 3 67 99 0 1 0 1 0 23 486 460 58 184 261 281 790 1592 2013 2223 2267 2211 1738 1289 1159 1093 1042 1020 827 502 344 348 344 375 287 212 377
0 0 0 0 0 0 0 0 0 8 7 0 0 0 0 40 44 201 382 455 411 440 99 233 956 1601 1816 2121 2461 2012 1466 1132 1044 1038 876 584 383 299 280 286 291 172 232
0 0 0 0 0 0 0 0 0 0 4 46 1 0 0 0 21 381 313 520 776 752 480 134 83 376 908 1363 1787 2262 2032 1576 1235 1160 966 687 457 309 267 246 242 213 162
0 0 0 0 0 0 0 0 0 0 0 0 17 43 174 241 178 238 356 496 811 972 860 615 110 1 24 356 1020 1788 2403 2121 1648 1419 1197 906 598 364 245 237 240 226 186
0 0 0 0 0 0 0 0 0 0 0 0 0 9 42 159 216 357 468 507 529 676 771 786 492 93 54 0 166 1059 1858 2462 2225 1642 1267 963 687 421 279 195 200 207 207
0 0 0 0 0 0 0 0 0 0 0 0 0 0 19 33 44 187 349 566 605 600 638 617 435 325 281 63 8 134 918 1604 1987 1958 1319 899 693 438 298 224 181 176 183
0 0 0 0 0 0 0 0 0 0 0 0 0 0 2 34 0 3 51 119 303 262 239 228 303 371 323 503 32 0 11 306 1011 1586 1464 955 657 492 360 275 204 180 169
0 0 0 0 0 0 1 0 2 2 1 0 0 0 0 1 9 0 0 0 0 5 69 36 26 15 8 83 410 141 24 0 26 762 1019 1023 791 550 431 348 266 205 197
0 0 0 0 0 1 3 5 1 2 3 8 4 0 0 0 0 8 0 0 0 0 0 31 134 180 300 273 284 304 18 0 0 33 404 666 809 672 485 399 333 273 208
0 0 0 1 0 2 4 7 6 4 4 7 9 6 8 4 3 3 5 0 0 0 0 0 0 0 161 357 385 460 157 0 0 0 8 217 531 605 444 395 367 353 288
0 0 0 0 1 4 5 4 6 9 9 11 13 16 12 8 13 13 4 2 2 0 0 0 0 0 0 30 385 495 237 0 0 1 0 0 63 169 238 255 344 377 350
0 0 0 0 3 3 0 3 10 4 10 15 12 13 21 19 15 14 17 13 5 1 0 0 0 0 0 0 0 200 14 63 0 1 1 0 0 1 46 74 128 224 260
1 0 0 0 0 0 0 0 3 12 7 13 12 10 7 11 14 13 23 24 23 9 1 0 0 0 0 0 0 0 73 6 0 0 1 1 1 4 0 1 14 53 96
0 0 0 1 0 0 0 0 7 4 5 9 8 14 14 12 9 4 18 17 21 22 14 2 2 0 0 0 0 0 0 1 3 0 0 1 1 0 0 0 1 1 6
0 0 0 1 0 0 0 0 7 1 3 4 4 11 17 8 6 5 3 3 6 10 19 15 16 7 2 0 0 0 0 0 12 9 0 0 0 1 1 1 1 1 1
0 0 0 0 0 0 0 0 8 1 2 7 5 6 14 10 1 12 17 27 16 20 18 25 12 3 2 1 0 0 0 0 0 43 0 34 0 1 1 1 1 1 1
0 0 0 0 0 0 0 0 12 4 2 7 6 4 5 8 13 11 19 10 14 6 5 20 24 11 7 9 0 0 0 0 0 0 0 0 1 1 1 1 1 1 1
0 0 0 0 0 0 0 0 4 1 1 5 8 9 6 13 14 8 17 10 8 10 6 10 12 11 13 0 0 2 0 0 0 1 0 0 0 0 1 1 1 1 1
0 0 1 0 0 0 1 0 1 1 1 2 4 4 10 16 13 8 15 9 8 10 10 12 9 6 2 6 5 5 5 2 0 2 0 0 0 0 0 0 0 1 1
0 0 0 0 0 3 4 3 0 1 2 1 1 0 4 5 3 6 8 9 9 8 8 11 11 7 8 7 8 7 6 7 3 0 1 0 2 3 5 2 0 0 1
0 0 0 0 0 0 5 7 8 0 0 0 0 0 2 0 0 0 2 4 4 8 14 6 8 6 6 3 7 7 6 6 5 1 1 0 0 0 1 2 2 1 1
0 0 0 0 0 0 4 2 2 0 0 0 0 0 0 0 0 0 0 0 0 0 2 7 2 2 4 2 4 6 4 1 0 0 1 0 0 0 0 0 4 3 2
0 0 0 0 0 0 5 4 0 0 0 0 0 0 0 0 5 4 0 0 0 0 1 6 4 4 2 4 2 1 1 0 0 0 1 1 1 1 0 0 0 2 2
0 0 0 0 0 0 2 6 0 0 0 0 0 0 5 1 5 5 0 0 0 0 0 0 0 0 0 0 0 0 1 1 1 0 0 0 0 1 0 0 0 0 0

GFSMA_con_sbcape_147.txt.gz
CAPE
0 0 0 0 0 0 0 2 0 3 44 59 0 1 0 26 103 42 78 11 127 438 1117 1509 2467 2286 1691 1628 1644 1534 1555 1490 1311 1178 981 785 690 658 696 497 679 738 692
0 0 0 0 0 0 0 0 0 0 5 1 5 0 0 0 0 0 0 3 164 122 461 1550 2260 2518 2189 1975 1601 1431 1430 1416 1347 1216 981 699 608 573 518 499 533 626 621
0 0 0 0 0 0 0 0 0 0 0 0 1 0 0 0 0 0 0 0 277 151 32 236 814 2041 1909 1839 1715 1385 1348 1222 1220 1189 998 754 541 492 361 368 455 539 580
0 0 0 0 0 0 0 0 0 0 0 0 0 0 0 0 1 1 0 0 248 134 5 32 149 334 410 1093 1421 1553 1304 1246 1058 1137 810 679 575 436 334 237 355 410 472
0 0 0 0 0 0 0 0 0 0 0 0 0 0 0 0 0 0 0 6 116 144 144 195 153 248 403 441 750 1397 1628 1347 1170 1076 974 657 514 443 343 247 243 308 309
0 0 0 0 0 0 0 0 0 0 0 0 0 0 0 0 0 0 0 0 50 114 179 182 205 51 9 111 205 760 1348 1588 1405 1370 1024 788 659 412 332 285 241 253 266
0 0 0 0 0 0 0 0 0 0 0 0 0 0 0 0 0 15 50 51 52 120 163 236 263 230 80 0 130 211 789 1493 1360 1227 958 742 739 478 318 263 257 211 231
0 0 0 0 0 0 0 0 0 0 0 0 0 1 0 0 0 0 0 19 76 54 110 127 133 151 184 146 102 86 342 610 1196 1185 907 598 590 406 315 266 234 213 186
0 0 0 0 0 0 0 0 0 0 0 0 0 2 2 0 0 0 0 0 0 0 0 0 0 1 25 109 201 42 7 21 164 625 651 869 676 353 296 308 270 216 173
0 0 0 0 0 0 0 0 0 0 0 0 0 0 0 1 3 0 0 0 0 0 0 0 0 0 0 0 2 36 71 14 0 5 139 347 561 462 411 319 285 268 226
0 0 0 0 0 0 0 0 0 0 0 1 0 3 1 0 0 7 0 0 0 0 0 0 0 0 0 0 0 0 0 0 0 0 0 12 202 389 394 439 343 279 268
0 0 0 0 0 0 0 0 0 0 0 0 0 2 5 8 3 8 7 2 2 0 0 0 0 0 0 0 0 0 0 0 0 0 2 1 2 49 195 337 472 395 343
0 0 0 0 0 0 0 0 0 0 0 0 0 0 0 1 2 5 8 6 6 1 3 0 0 0 0 0 0 0 0 0 0 0 0 0 2 0 1 27 217 481 426
0 0 0 0 0 0 0 0 0 0 0 0 0 0 0 1 0 3 9 15 5 2 4 2 1 0 0 0 0 3 0 0 0 0 0 0 0 1 1 0 9 183 278
0 0 0 0 0 0 0 0 0 0 0 0 0 0 0 0 0 0 1 4 12 5 2 3 10 1 0 0 0 0 0 0 0 0 0 0 0 0 0 0 0 0 0
0 0 0 0 0 0 0 0 0 0 0 0 0 0 0 0 0 0 1 11 15 13 9 7 5 1 0 0 0 0 0 0 0 0 0 0 0 0 0 0 0 0 0
0 0 0 0 0 0 0 0 0 0 0 0 0 0 1 0 0 0 0 6 2 10 10 4 0 0 0 0 0 0 0 0 0 0 0 0 0 0 0 0 0 0 1
0 0 0 0 0 0 0 0 0 0 0 1 0 1 4 2 0 0 2 0 4 2 17 14 1 8 3 0 2 0 2 0 0 0 0 0 0 1 0 1 1 0 1
0 0 0 0 0 0 0 0 0 0 0 2 1 2 7 5 1 0 6 1 1 5 4 9 9 8 5 3 1 1 0 0 0 0 0 0 3 2 0 0 0 0 0
0 0 0 0 0 0 0 0 0 0 0 0 1 1 6 3 8 5 6 9 2 4 3 4 4 7 7 3 5 7 1 3 3 0 0 4 3 6 5 4 5 4 1
0 0 0 0 0 0 0 0 0 0 0 0 0 0 5 5 7 9 12 8 5 4 7 7 7 6 5 4 6 5 9 4 3 1 1 7 7 5 6 3 4 6 5
0 0 0 0 0 1 1 0 0 0 0 0 0 0 0 1 0 2 5 6 7 5 3 6 8 7 5 6 4 3 7 4 7 0 2 6 3 5 7 7 8 5 8
0 0 0 0 0 0 2 0 0 0 0 0 0 0 0 0 0 0 0 0 2 6 7 6 5 4 5 4 4 3 3 10 6 4 2 4 0 1 2 5 6 8 6
0 0 0 0 0 0 3 1 0 0 0 0 0 0 0 0 0 0 0 0 0 0 0 3 0 0 0 1 2 4 5 2 8 0 1 0 2 0 0 0 9 8 8
0 0 0 0 0 0 1 1 0 0 0 0 0 0 0 0 5 7 0 0 0 0 0 4 4 3 2 4 2 1 2 1 2 2 0 0 2 0 0 0 0 2 9
0 0 0 0 0 0 2 0 0 0 0 0 0 0 4 1 6 7 0 0 0 0 0 0 0 0 0 0 1 0 0 0 0 0 0 0 0 0 0 2 2 0 0

GFSMA_con_sbcape_150.txt.gz
CAPE
0 0 0 0 0 0 0 0 0 0 1 1 22 48 0 0 70 214 183 38 12 180 424 1500 1964 2489 2160 1846 1529 1443 1418 1439 1315 1128 1016 837 674 707 730 708 684 750 614
0 0 0 0 0 0 0 0 0 0 0 0 4 58 64 22 0 4 23 15 0 71 300 597 1177 1913 2169 1932 1560 1459 1422 1383 1323 1087 938 755 654 543 548 541 470 367 366
0 0 0 0 0 0 0 0 0 0 0 0 0 0 2 2 0 0 0 0 0 18 258 204 373 662 1102 1721 1443 1402 1246 1222 1190 1113 937 710 507 433 387 395 373 397 511
0 0 0 0 0 0 0 0 0 0 0 0 0 0 0 0 2 1 0 2 1 39 231 199 41 183 317 1005 1384 1691 1700 1266 953 927 866 711 540 442 335 318 329 337 437
0 0 0 0 0 0 0 0 0 0 0 0 0 0 0 0 0 0 1 1 0 3 134 152 155 45 69 305 793 1252 1418 1610 1064 942 896 627 535 488 328 297 262 250 343
0 0 0 0 0 0 0 0 0 0 0 0 0 0 0 0 0 0 0 0 0 21 75 114 161 111 28 51 205 922 927 703 864 1106 891 830 487 460 316 242 240 213 269
0 0 0 0 0 0 0 0 0 0 0 0 0 0 0 0 0 0 1 0 5 48 5 9 10 19 113 1 45 301 449 203 533 840 745 623 591 465 340 252 245 213 215
0 0 0 0 0 0 0 0 0 0 0 0 0 1 0 0 0 0 0 0 0 0 0 0 0 0 0 6 9 44 295 579 391 660 782 484 331 235 410 301 252 257 229
0 0 0 0 0 0 0 0 0 0 0 0 0 0 1 0 0 0 0 0 0 0 0 0 0 0 0 0 0 0 2 2 12 241 322 293 240 327 303 284 268 288 232
0 0 0 0 0 0 0 0 0 0 0 1 0 0 0 1 3 0 0 0 0 0 0 0 0 0 0 0 0 0 0 0 0 1 8 43 199 291 266 233 230 248 276
0 0 0 0 0 0 0 0 0 0 0 0 2 4 3 0 0 4 3 0 0 0 0 0 0 0 0 0 0 0 0 0 0 0 0 0 3 6 96 347 319 262 198
0 0 0 0 0 0 0 0 0 0 0 0 0 0 1 3 1 3 4 2 2 0 0 0 0 0 0 0 0 0 1 0 0 0 0 0 0 0 2 9 221 313 286
0 0 0 0 0 0 0 0 0 0 0 0 0 1 1 1 0 1 2 3 2 0 0 0 0 0 0 0 0 0 0 0 0 0 0 0 0 0 0 0 3 56 322
0 0 0 0 0 0 0 0 0 0 0 0 0 0 0 0 0 1 5 3 2 0 0 1 5 0 0 0 0 0 0 0 0 0 0 0 0 0 0 0 0 3 3
0 0 0 0 0 0 0 0 0 0 0 0 0 0 0 0 0 0 2 0 19 6 2 0 0 0 0 0 0 0 0 0 0 0 0 0 0 0 0 0 0 1 3
0 0 0 0 0 0 0 0 0 0 0 0 0 0 0 0 0 0 1 3 0 3 5 0 0 0 8 13 4 4 0 0 0 0 0 0 0 0 0 0 1 0 1
0 0 0 0 0 0 0 0 0 0 0 0 0 0 1 0 0 0 4 1 2 3 5 2 1 6 3 3 0 0 0 5 6 0 0 0 1 0 0 0 0 0 1
0 0 0 0 0 0 0 0 0 0 0 0 0 2 1 2 0 1 2 2 2 2 5 2 3 5 2 0 0 3 0 0 8 0 0 0 5 3 3 1 1 0 0
0 0 0 0 0 0 0 0 0 0 0 0 0 3 3 1 1 2 1 1 1 2 2 3 5 5 2 1 0 0 1 2 1 0 0 3 5 5 7 7 6 4 2
0 0 0 0 0 0 0 0 0 0 0 0 0 1 5 0 7 8 2 3 1 0 1 1 1 5 4 1 1 3 1 3 6 0 0 1 5 8 10 8 8 7 6
0 0 0 0 0 0 0 0 0 0 0 0 0 0 7 3 6 3 8 4 3 1 1 0 1 2 7 6 6 5 6 2 7 2 1 5 10 9 9 8 9 10 7
0 0 0 0 0 0 1 1 0 0 0 0 0 0 2 1 0 4 5 5 3 4 3 6 7 5 7 11 7 9 5 8 1 1 2 5 7 5 11 11 12 11 10
0 0 0 0 0 0 2 1 0 0 0 0 0 0 0 0 0 0 0 1 1 5 8 4 4 4 4 9 7 3 5 2 3 5 1 6 3 5 5 9 14 13 11
0 0 0 0 0 0 2 1 0 0 0 0 0 0 0 0 0 0 0 0 0 0 0 6 0 0 2 7 5 5 6 1 6 3 3 0 2 2 4 2 13 17 10
0 0 0 0 0 0 5 0 0 0 0 0 0 0 0 0 5 6 0 0 0 0 0 4 5 3 3 6 3 1 1 0 1 3 0 1 5 2 7 4 3 9 3
0 0 0 0 0 0 3 0 0 0 0 0 0 0 2 0 5 4 0 0 0 0 0 0 0 0 0 0 2 0 4 1 0 0 0 1 2 2 2 13 0 2 8